Other Surface Observations
Issued by NWS Charleston, SC

Home | Current Version | Previous Version | Text Only | Print | Product List | Glossary On
Versions: 1 2 3 4 5 6 7 8 9 10 11 12 13 14 15 16 17 18 19 20 21 22 23 24 25 26 27 28 29 30 31 32 33 34 35 36 37 38 39 40 41 42 43 44 45 46 47 48 49 50
000
SXUS52 KCHS 262025
OSOCHS

MARINE OBSERVATIONS
NATIONAL WEATHER SERVICE CHARLESTON SC
300 PM EST MON JAN 26 2015

...DOWNTOWN CHARLESTON AND HARBOR...

CITY           SKY/WX    TMP DP  RH WIND       PRES   REMARKS
WATERFRONT PRK   N/A     55 N/A N/A W10G20      N/A
FORT JOHNSON   NOT AVBL

...LAKE MOULTRIE...

CITY           SKY/WX    TMP DP  RH WIND       PRES   REMARKS
PINOPOLIS      NOT AVBL

...LAKE AND SUPPLEMENTAL COASTAL OBSERVATIONS...

STATION/POSITION TIME  TEMP    WIND        PRES    WAVE   SWELL
                       AIR SEA DIR/SP/G            HT/PER HT/PER/DIR
                 (UTC) (F)     (DEG/KT/KT) (MB)    (FT/S) (FT/S/D)
FORT PULASKI     2000   53 53  270/ 20/ 24 1006.4R
SAPELO ISLAND    1900   55     280/ 19     1007.0S
UPR LAKE MARION  NOT AVBL
WINYAH BAY       1900   57     270/ 10     1001.0S
LAKE MURRAY      2000   52     280/  9/ 24 1003.0S
ACE BASIN NERRS  1900   55     290/  5     1004.0S


...C-MAN AND BUOY OBSERVATIONS...

STATION/POSITION TIME  TEMP    WIND        PRES    WAVE   SWELL
                       AIR SEA DIR/SP/G            HT/PER HT/PER/DIR
                 (UTC) (F)     (DEG/KT/KT) (MB)    (FT/S) (FT/S/D)
BUOY 41004       2000   57 69  270/ 23/ 31 1002.1F   6/ 7   2/10
BUOY 41008       2000   54 55  290/ 23/ 29 1006.2R   5/ 5
FOLLY BEACH CMAN 2000   54     270/  6/  9 1004.1R
CAPERS NS BUOY   1900   55     320/ 16/ 19   N/A
FRIPP NS BUOY    1900   54     270/ 21/ 25   N/A
5E ST. MARYS GA  2000      58                N/A     3/ 4


STATION/POSITION TIME  TEMP    WIND        PRES    WAVE   SWELL
                       AIR SEA DIR/SP/G            HT/PER HT/PER/DIR
                 (UTC) (F)     (DEG/KT/KT) (MB)    (FT/S) (FT/S/D)
FRYING PAN BUOY  2000   55 67  270/ 16/ 19 1001.4R   6/ 7
BUOY 41025       2000   58 71  360/  6/  8  998.7R   3/ 7   3/200/ 7
CAPE LOOKOUT NC  2000   50     310/  6/  8  999.3F
BUOY 41002       1854   61 72  250/ 12/ 17 1000.3F  11/ 8  10/250/ 8
BUOY 41010       2000   66 76  280/ 29/ 37 1006.4R  12/ 8
ST AUGUSTINE FL  2000   58     270/ 17/ 24 1009.3R

$$



USA.gov is the U.S. government's official web portal to all federal, state and local government web resources and services.